| time (UTC) | temp C | wind direction | speed KPH | gust KPH | rain 1hr cm | rain 24hr cm | rain mn cm | humidity % | barometer mb |
| 20260510104540 | 11 | 331 | 0.0 | 3.2 | 0.00 | 1.35 | 0.00 | 78 | 1011.3 |
| 20260510103038 | 11 | 270 | 0.0 | 6.4 | 0.00 | 1.35 | 0.00 | 78 | 1010.9 |
| 20260510101536 | 11 | 47 | 0.0 | 3.2 | 0.00 | 1.35 | 0.00 | 78 | 1010.5 |
| 20260510100047 | 11 | 303 | 1.6 | 6.4 | 0.00 | 1.35 | 0.00 | 78 | 1010.4 |
| 20260510094533 | 11 | 39 | 0.0 | 6.4 | 0.00 | 1.35 | 0.00 | 79 | 1010.3 |
| 20260510093042 | 10 | 42 | 0.0 | 4.8 | 0.00 | 1.35 | 0.00 | 79 | 1010.2 |
| 20260510091536 | 10 | 1 | 0.0 | 4.8 | 0.00 | 1.35 | 0.00 | 79 | 1009.7 |
| 20260510090036 | 10 | 60 | 0.0 | 6.4 | 0.00 | 1.35 | 0.00 | 79 | 1009.7 |
| 20260510084533 | 10 | 359 | 0.0 | 4.8 | 0.00 | 1.35 | 0.00 | 79 | 1009.9 |
| 20260510083029 | 10 | 26 | 0.0 | 3.2 | 0.00 | 1.35 | 0.00 | 78 | 1009.9 |
| 20260510081527 | 11 | 44 | 0.0 | 1.6 | 0.00 | 1.35 | 0.00 | 78 | 1010.2 |
| 20260510080027 | 11 | 48 | 0.0 | 4.8 | 0.00 | 1.35 | 0.00 | 77 | 1010.0 |
| 20260510074525 | 11 | 16 | 0.0 | 6.4 | 0.00 | 1.35 | 0.00 | 77 | 1009.8 |
| 20260510073024 | 11 | 55 | 0.0 | 6.4 | 0.00 | 1.35 | 0.00 | 77 | 1010.3 |
| 20260510071534 | 11 | 6 | 1.6 | 9.7 | 0.00 | 1.35 | 0.00 | 77 | 1010.3 |
| 20260510070021 | 11 | 49 | 0.0 | 8.0 | 0.00 | 1.35 | 0.00 | 77 | 1010.8 |
| 20260510064520 | 11 | 66 | 0.0 | 6.4 | 0.00 | 1.35 | 0.00 | 78 | 1010.6 |
| 20260510063023 | 11 | 254 | 0.0 | 1.6 | 0.00 | 1.35 | 0.00 | 78 | 1010.6 |
| 20260510061534 | 11 | 61 | 0.0 | 3.2 | 0.00 | 1.35 | 0.00 | 78 | 1010.4 |
| 20260510060016 | 11 | 42 | 0.0 | 1.6 | 0.00 | 1.35 | 0.00 | 78 | 1010.0 |
| 20260510054515 | 11 | 54 | 0.0 | 6.4 | 0.00 | 1.35 | 0.00 | 77 | 1010.1 |
| 20260510053014 | 10 | 115 | 0.0 | 4.8 | 0.00 | 1.35 | 0.00 | 77 | 1010.1 |
| 20260510051512 | 11 | 312 | 0.0 | 3.2 | 0.00 | 1.35 | 0.00 | 77 | 1010.1 |
| 20260510050014 | 11 | 34 | 0.0 | 3.2 | 0.00 | 1.35 | 0.00 | 76 | 1009.9 |
| 20260510044509 | 11 | 258 | 0.0 | 4.8 | 0.00 | 1.35 | 0.00 | 76 | 1010.1 |
| 20260510043013 | 11 | 265 | 0.0 | 4.8 | 0.00 | 1.35 | 0.00 | 76 | 1010.1 |
| 20260510041505 | 11 | 32 | 0.0 | 1.6 | 0.00 | 1.35 | 0.00 | 76 | 1010.1 |
| 20260510040004 | 11 | 39 | 0.0 | 3.2 | 0.00 | 1.35 | 0.00 | 75 | 1010.2 |
| 20260510034503 | 11 | 39 | 0.0 | 1.6 | 0.00 | 1.35 | 1.35 | 75 | 1010.0 |
| 20260510033003 | 11 | 32 | 0.0 | 3.2 | 0.00 | 1.35 | 1.35 | 75 | 1010.0 |
| 20260510031502 | 11 | 1 | 0.0 | 3.2 | 0.00 | 1.35 | 1.35 | 75 | 1009.9 |
| 20260510030004 | 11 | 39 | 0.0 | 3.2 | 0.00 | 1.35 | 1.35 | 75 | 1009.9 |
| 20260510024501 | 11 | 8 | 0.0 | 3.2 | 0.00 | 1.35 | 1.35 | 75 | 1010.3 |
| 20260510023001 | 11 | 20 | 0.0 | 4.8 | 0.00 | 1.35 | 1.35 | 75 | 1010.2 |
| 20260510021603 | 11 | 46 | 0.0 | 4.8 | 0.00 | 1.35 | 1.35 | 75 | 1010.0 |
| 20260510020059 | 11 | 19 | 0.0 | 1.6 | 0.00 | 1.35 | 1.35 | 75 | 1010.1 |
| 20260510014559 | 11 | 337 | 1.6 | 6.4 | 0.00 | 1.35 | 1.35 | 75 | 1010.1 |
| 20260510013059 | 11 | 7 | 0.0 | 3.2 | 0.00 | 1.35 | 1.35 | 75 | 1010.0 |
| 20260510011559 | 11 | 13 | 0.0 | 8.0 | 0.00 | 1.35 | 1.35 | 76 | 1010.2 |
| 20260510010057 | 11 | 281 | 0.0 | 3.2 | 0.00 | 1.35 | 1.35 | 76 | 1010.1 |
| 20260510004600 | 11 | 51 | 0.0 | 3.2 | 0.00 | 1.35 | 1.35 | 76 | 1009.9 |
| 20260510003111 | 12 | 40 | 0.0 | 3.2 | 0.00 | 1.35 | 1.35 | 76 | 1010.0 |
| 20260510001555 | 12 | 21 | 0.0 | 1.6 | 0.00 | 1.35 | 1.35 | 76 | 1009.6 |
| 20260509234607 | 12 | 35 | 0.0 | 3.2 | 0.00 | 1.35 | 1.35 | 75 | 1009.2 |
| 20260509233054 | 12 | 50 | 0.0 | 4.8 | 0.00 | 1.35 | 1.35 | 74 | 1009.1 |
| 20260509231556 | 12 | 51 | 0.0 | 11.3 | 0.00 | 1.35 | 1.35 | 73 | 1008.8 |
| 20260509230058 | 13 | 355 | 1.6 | 6.4 | 0.00 | 1.35 | 1.35 | 72 | 1008.7 |
| 20260509224551 | 13 | 21 | 0.0 | 6.4 | 0.00 | 1.35 | 1.35 | 72 | 1008.9 |
| 20260509223051 | 13 | 34 | 0.0 | 4.8 | 0.00 | 1.35 | 1.35 | 72 | 1008.9 |
| 20260509221549 | 13 | 18 | 0.0 | 8.0 | 0.00 | 1.35 | 1.35 | 74 | 1008.9 |
| 20260509220046 | 13 | 271 | 1.6 | 4.8 | 0.00 | 1.35 | 1.35 | 75 | 1008.9 |
| 20260509214543 | 12 | 54 | 0.0 | 1.6 | 0.00 | 1.35 | 1.35 | 78 | 1009.2 |
| 20260509213043 | 12 | 56 | 0.0 | 6.4 | 0.00 | 1.35 | 1.35 | 79 | 1009.2 |
| 20260509211540 | 12 | 30 | 0.0 | 6.4 | 0.00 | 1.35 | 1.35 | 80 | 1009.3 |
| 20260509210041 | 12 | 339 | 0.0 | 4.8 | 0.00 | 1.35 | 1.35 | 82 | 1009.4 |
| 20260509204535 | 12 | 49 | 0.0 | 1.6 | 0.03 | 1.35 | 1.35 | 84 | 1009.6 |
| 20260509203037 | 11 | 51 | 0.0 | 3.2 | 0.03 | 1.35 | 1.35 | 84 | 1009.8 |
| 20260509201532 | 11 | 32 | 0.0 | 4.8 | 0.05 | 1.35 | 1.35 | 84 | 1009.9 |
| 20260509200028 | 11 | 25 | 0.0 | 3.2 | 0.05 | 1.35 | 1.35 | 84 | 1010.1 |
| 20260509194533 | 11 | 27 | 0.0 | 1.6 | 0.05 | 1.32 | 1.32 | 84 | 1010.4 |
| 20260509193024 | 11 | 37 | 0.0 | 3.2 | 0.08 | 1.32 | 1.32 | 84 | 1010.5 |
| 20260509191523 | 10 | 26 | 0.0 | 4.8 | 0.08 | 1.30 | 1.30 | 84 | 1010.6 |
| 20260509190020 | 10 | 360 | 0.0 | 3.2 | 0.10 | 1.27 | 1.27 | 84 | 1010.7 |
| 20260509184518 | 10 | 18 | 0.0 | 8.0 | 0.13 | 1.27 | 1.27 | 84 | 1011.0 |
| 20260509183023 | 10 | 47 | 0.0 | 1.6 | 0.15 | 1.24 | 1.24 | 84 | 1010.8 |
| 20260509181515 | 10 | 31 | 0.0 | 1.6 | 0.15 | 1.22 | 1.22 | 84 | 1010.8 |
| 20260509180013 | 10 | 18 | 0.0 | 1.6 | 0.15 | 1.17 | 1.17 | 84 | 1010.9 |
| 20260509174511 | 10 | 44 | 0.0 | 1.6 | 0.15 | 1.14 | 1.14 | 84 | 1011.1 |
| 20260509173009 | 9 | 36 | 0.0 | 1.6 | 0.10 | 1.09 | 1.09 | 83 | 1011.2 |
| 20260509171509 | 9 | 27 | 0.0 | 0.0 | 0.13 | 1.07 | 1.07 | 83 | 1011.2 |
| 20260509170007 | 9 | 46 | 0.0 | 6.4 | 0.10 | 1.02 | 1.02 | 83 | 1011.2 |
| 20260509164509 | 9 | 36 | 0.0 | 3.2 | 0.10 | 0.99 | 0.99 | 83 | 1011.4 |
| 20260509163002 | 8 | 9 | 0.0 | 3.2 | 0.15 | 0.99 | 0.99 | 84 | 1011.8 |
| 20260509161559 | 8 | 27 | 0.0 | 3.2 | 0.15 | 0.94 | 0.94 | 84 | 1012.1 |
| 20260509160059 | 8 | 32 | 0.0 | 1.6 | 0.20 | 0.91 | 0.91 | 84 | 1012.2 |
| 20260509154556 | 8 | 345 | 0.0 | 1.6 | 0.23 | 0.89 | 0.89 | 84 | 1012.6 |
| 20260509153051 | 8 | 349 | 0.0 | 1.6 | 0.25 | 0.84 | 0.84 | 84 | 1012.8 |
| 20260509151550 | 8 | 28 | 0.0 | 1.6 | 0.28 | 0.79 | 0.79 | 84 | 1013.1 |
| 20260509150047 | 7 | 39 | 0.0 | 1.6 | 0.28 | 0.71 | 0.71 | 82 | 1013.1 |
| 20260509144546 | 7 | 335 | 0.0 | 0.0 | 0.28 | 0.64 | 0.64 | 82 | 1013.0 |
| 20260509143046 | 7 | 334 | 0.0 | 1.6 | 0.28 | 0.58 | 0.58 | 82 | 1013.0 |
| 20260509141545 | 7 | 311 | 0.0 | 1.6 | 0.25 | 0.51 | 0.51 | 82 | 1012.9 |
| 20260509140048 | 7 | 312 | 0.0 | 1.6 | 0.23 | 0.43 | 0.43 | 81 | 1012.9 |
| 20260509134543 | 7 | 312 | 0.0 | 1.6 | 0.18 | 0.36 | 0.36 | 80 | 1012.7 |
| 20260509133040 | 7 | 311 | 0.0 | 1.6 | 0.20 | 0.30 | 0.30 | 78 | 1012.7 |
| 20260509131539 | 6 | 310 | 0.0 | 1.6 | 0.20 | 0.25 | 0.25 | 75 | 1012.7 |
| 20260509130037 | 7 | 309 | 0.0 | 1.6 | 0.18 | 0.20 | 0.20 | 75 | 1012.8 |
| 20260509124536 | 7 | 46 | 0.0 | 1.6 | 0.15 | 0.18 | 0.18 | 75 | 1013.1 |
| 20260509123034 | 7 | 46 | 0.0 | 1.6 | 0.10 | 0.10 | 0.10 | 74 | 1013.1 |
| 20260509121537 | 7 | 347 | 0.0 | 0.0 | 0.05 | 0.05 | 0.05 | 73 | 1013.2 |
| 20260509120029 | 7 | 327 | 0.0 | 0.0 | 0.03 | 0.03 | 0.03 | 73 | 1013.1 |
| 20260509114526 | 7 | 327 | 0.0 | 1.6 | 0.03 | 0.03 | 0.03 | 72 | 1013.1 |
| 20260509113024 | 6 | 348 | 0.0 | 0.0 | 0.00 | 0.00 | 0.00 | 71 | 1013.0 |
| 20260509111519 | 6 | 347 | 0.0 | 0.0 | 0.00 | 0.00 | 0.00 | 71 | 1013.1 |
| 20260509110016 | 6 | 347 | 0.0 | 0.0 | 0.00 | 0.00 | 0.00 | 70 | 1012.9 |